Time,TemperatureF,DewpointF,PressureIn,WindDirection,WindDirectionDegrees,WindSpeedMPH,WindSpeedGustMPH,Humidity,HourlyPrecipIn,Conditions,Clouds,dailyrainin,SoftwareType,DateUTC
2013-09-04 00:01:00,63.9,59.0,29.79,ESE,109,0.0,0.0,84,0.00,,,0.01,Wunderground v.1.15,2013-09-04 04:01:00,
2013-09-04 00:02:00,63.9,59.0,29.79,ESE,109,0.0,0.0,84,0.00,,,0.01,Wunderground v.1.15,2013-09-04 04:02:00,
2013-09-04 00:03:00,63.9,59.0,29.79,ESE,109,0.0,0.0,84,0.00,,,0.01,Wunderground v.1.15,2013-09-04 04:03:00,
2013-09-04 00:06:00,63.9,59.0,29.79,ESE,109,0.0,0.0,84,0.00,,,0.01,Wunderground v.1.15,2013-09-04 04:06:00,
2013-09-04 00:12:00,63.9,59.3,29.79,ESE,109,0.0,0.0,85,0.00,,,0.01,Wunderground v.1.15,2013-09-04 04:12:00,
2013-09-04 00:18:00,63.7,59.1,29.80,ESE,109,0.0,0.0,85,0.00,,,0.01,Wunderground v.1.15,2013-09-04 04:18:00,
2013-09-04 00:20:00,63.7,59.1,29.80,ESE,109,0.0,0.0,85,0.00,,,0.01,Wunderground v.1.15,2013-09-04 04:20:00,
2013-09-04 00:25:00,63.5,58.9,29.80,ESE,109,0.0,0.0,85,0.00,,,0.01,Wunderground v.1.15,2013-09-04 04:25:00,
2013-09-04 00:30:00,63.5,58.9,29.80,ESE,109,0.0,0.0,85,0.00,,,0.01,Wunderground v.1.15,2013-09-04 04:30:00,
2013-09-04 00:36:00,63.7,59.1,29.80,ESE,109,0.0,0.0,85,0.00,,,0.01,Wunderground v.1.15,2013-09-04 04:36:00,
2013-09-04 00:41:00,63.7,59.4,29.80,ESE,109,0.0,0.0,86,0.00,,,0.01,Wunderground v.1.15,2013-09-04 04:41:00,
2013-09-04 00:47:00,63.5,59.2,29.81,ESE,109,0.0,0.0,86,0.00,,,0.01,Wunderground v.1.15,2013-09-04 04:47:00,
2013-09-04 00:53:00,63.5,59.2,29.81,ESE,109,0.0,1.0,86,0.00,,,0.01,Wunderground v.1.15,2013-09-04 04:53:00,
2013-09-04 00:58:00,63.5,59.6,29.82,ESE,109,0.0,1.0,87,0.00,,,0.01,Wunderground v.1.15,2013-09-04 04:58:00,
2013-09-04 01:03:00,63.4,59.1,29.82,ESE,109,0.0,2.0,86,0.00,,,0.01,Wunderground v.1.15,2013-09-04 05:03:00,
2013-09-04 01:09:00,63.4,59.1,29.82,ESE,108,0.0,4.0,86,0.00,,,0.01,Wunderground v.1.15,2013-09-04 05:09:00,
2013-09-04 01:15:00,63.4,59.1,29.82,ESE,108,0.0,2.0,86,0.00,,,0.01,Wunderground v.1.15,2013-09-04 05:15:00,
2013-09-04 01:21:00,63.2,58.6,29.82,ESE,108,0.0,0.0,85,0.00,,,0.01,Wunderground v.1.15,2013-09-04 05:21:00,
2013-09-04 01:26:00,63.2,58.6,29.82,ESE,107,0.0,3.0,85,0.00,,,0.01,Wunderground v.1.15,2013-09-04 05:26:00,
2013-09-04 01:32:00,63.2,58.3,29.81,ESE,107,1.0,4.0,84,0.00,,,0.01,Wunderground v.1.15,2013-09-04 05:32:00,
2013-09-04 01:38:00,63.2,58.3,29.81,ESE,107,2.0,4.0,84,0.00,,,0.01,Wunderground v.1.15,2013-09-04 05:38:00,
2013-09-04 01:44:00,63.2,58.3,29.81,ESE,107,0.0,1.0,84,0.00,,,0.01,Wunderground v.1.15,2013-09-04 05:44:00,
2013-09-04 01:50:00,63.2,58.3,29.81,ESE,106,4.0,4.0,84,0.00,,,0.01,Wunderground v.1.15,2013-09-04 05:50:00,
2013-09-04 01:56:00,63.2,57.9,29.81,ESE,107,1.0,4.0,83,0.00,,,0.01,Wunderground v.1.15,2013-09-04 05:56:00,
2013-09-04 02:01:00,63.2,57.9,29.81,ESE,107,0.0,1.0,83,0.00,,,0.01,Wunderground v.1.15,2013-09-04 06:01:00,
2013-09-04 02:06:00,63.2,58.3,29.81,ESE,111,1.0,6.0,84,0.00,,,0.01,Wunderground v.1.15,2013-09-04 06:06:00,
2013-09-04 02:11:00,63.2,58.3,29.81,ESE,111,0.0,1.0,84,0.00,,,0.01,Wunderground v.1.15,2013-09-04 06:11:00,
2013-09-04 02:16:00,63.1,58.5,29.81,ESE,112,0.0,1.0,85,0.00,,,0.01,Wunderground v.1.15,2013-09-04 06:16:00,
2013-09-04 02:21:00,63.1,58.5,29.81,ESE,111,0.0,0.0,85,0.00,,,0.01,Wunderground v.1.15,2013-09-04 06:21:00,
2013-09-04 02:26:00,63.1,58.8,29.81,ESE,111,0.0,1.0,86,0.00,,,0.01,Wunderground v.1.15,2013-09-04 06:26:00,
2013-09-04 02:31:00,62.9,59.0,29.81,ESE,111,0.0,0.0,87,0.00,,,0.01,Wunderground v.1.15,2013-09-04 06:31:00,
2013-09-04 02:36:00,62.7,58.8,29.81,ESE,112,0.0,2.0,87,0.00,,,0.01,Wunderground v.1.15,2013-09-04 06:36:00,
2013-09-04 02:41:00,62.6,58.7,29.81,ESE,113,0.0,1.0,87,0.00,,,0.01,Wunderground v.1.15,2013-09-04 06:41:00,
2013-09-04 02:46:00,62.4,58.5,29.82,ESE,113,0.0,1.0,87,0.00,,,0.01,Wunderground v.1.15,2013-09-04 06:46:00,
2013-09-04 02:51:00,62.4,58.5,29.82,ESE,113,0.0,0.0,87,0.00,,,0.01,Wunderground v.1.15,2013-09-04 06:51:00,
2013-09-04 02:56:00,62.3,58.7,29.82,ESE,113,0.0,0.0,88,0.00,,,0.01,Wunderground v.1.15,2013-09-04 06:56:00,
2013-09-04 03:01:00,62.3,58.7,29.82,ESE,111,0.0,1.0,88,0.00,,,0.01,Wunderground v.1.15,2013-09-04 07:01:00,
2013-09-04 03:06:00,62.3,58.7,29.82,ESE,111,0.0,5.0,88,0.00,,,0.01,Wunderground v.1.15,2013-09-04 07:06:00,
2013-09-04 03:11:00,62.1,58.5,29.82,ESE,109,0.0,4.0,88,0.00,,,0.01,Wunderground v.1.15,2013-09-04 07:11:00,
2013-09-04 03:16:00,62.1,58.5,29.82,ESE,107,0.0,4.0,88,0.00,,,0.01,Wunderground v.1.15,2013-09-04 07:16:00,
2013-09-04 03:21:00,62.1,58.5,29.82,ESE,109,3.0,5.0,88,0.00,,,0.01,Wunderground v.1.15,2013-09-04 07:21:00,
2013-09-04 03:26:00,62.1,58.5,29.82,ESE,117,0.0,6.0,88,0.00,,,0.01,Wunderground v.1.15,2013-09-04 07:26:00,
2013-09-04 03:31:00,62.1,58.5,29.82,ESE,117,0.0,1.0,88,0.00,,,0.01,Wunderground v.1.15,2013-09-04 07:31:00,
2013-09-04 03:37:00,62.1,58.5,29.82,ESE,116,0.0,6.0,88,0.00,,,0.01,Wunderground v.1.15,2013-09-04 07:37:00,
2013-09-04 03:42:00,62.0,58.7,29.82,ESE,116,0.0,1.0,89,0.00,,,0.01,Wunderground v.1.15,2013-09-04 07:42:00,
2013-09-04 03:47:00,61.8,58.5,29.82,ESE,116,0.0,4.0,89,0.00,,,0.01,Wunderground v.1.15,2013-09-04 07:47:00,
2013-09-04 03:52:00,61.8,58.5,29.82,ESE,117,3.0,4.0,89,0.00,,,0.01,Wunderground v.1.15,2013-09-04 07:52:00,
2013-09-04 03:57:00,61.6,58.3,29.82,ESE,117,0.0,4.0,89,0.00,,,0.01,Wunderground v.1.15,2013-09-04 07:57:00,
2013-09-04 04:02:00,61.6,58.3,29.82,ESE,117,0.0,0.0,89,0.00,,,0.01,Wunderground v.1.15,2013-09-04 08:02:00,
2013-09-04 04:07:00,61.5,58.5,29.82,ESE,116,0.0,3.0,90,0.00,,,0.01,Wunderground v.1.15,2013-09-04 08:07:00,
2013-09-04 04:12:00,61.6,58.6,29.82,ESE,116,0.0,0.0,90,0.00,,,0.01,Wunderground v.1.15,2013-09-04 08:12:00,
2013-09-04 04:17:00,61.5,58.5,29.82,ESE,117,1.0,3.0,90,0.00,,,0.01,Wunderground v.1.15,2013-09-04 08:17:00,
2013-09-04 04:22:00,61.6,58.6,29.82,ESE,116,0.0,3.0,90,0.00,,,0.01,Wunderground v.1.15,2013-09-04 08:22:00,
2013-09-04 04:27:00,61.6,58.3,29.82,ESE,116,0.0,3.0,89,0.00,,,0.01,Wunderground v.1.15,2013-09-04 08:27:00,
2013-09-04 04:33:00,61.5,58.2,29.83,ESE,117,0.0,0.0,89,0.00,,,0.01,Wunderground v.1.15,2013-09-04 08:33:00,
2013-09-04 04:38:00,61.3,57.7,29.83,ESE,116,0.0,0.0,88,0.00,,,0.01,Wunderground v.1.15,2013-09-04 08:38:00,
2013-09-04 04:43:00,61.3,57.7,29.83,ESE,116,0.0,0.0,88,0.00,,,0.01,Wunderground v.1.15,2013-09-04 08:43:00,
2013-09-04 04:48:00,61.2,57.3,29.83,ESE,116,0.0,0.0,87,0.00,,,0.00,Wunderground v.1.15,2013-09-04 08:48:00,
2013-09-04 04:53:00,61.3,57.1,29.83,ESE,117,0.0,0.0,86,0.00,,,0.00,Wunderground v.1.15,2013-09-04 08:53:00,
2013-09-04 04:58:00,61.0,56.8,29.83,ESE,116,0.0,0.0,86,0.00,,,0.00,Wunderground v.1.15,2013-09-04 08:58:00,
2013-09-04 05:03:00,60.7,56.8,29.83,ESE,117,0.0,2.0,87,0.00,,,0.00,Wunderground v.1.15,2013-09-04 09:03:00,
2013-09-04 05:08:00,60.5,57.2,29.83,ESE,116,0.0,2.0,89,0.00,,,0.00,Wunderground v.1.15,2013-09-04 09:08:00,
2013-09-04 05:13:00,60.5,57.2,29.83,ESE,117,0.0,1.0,89,0.00,,,0.00,Wunderground v.1.15,2013-09-04 09:13:00,
2013-09-04 05:18:00,60.2,57.3,29.83,ESE,117,0.0,1.0,90,0.00,,,0.00,Wunderground v.1.15,2013-09-04 09:18:00,
2013-09-04 05:23:00,60.4,57.5,29.83,ESE,117,0.0,0.0,90,0.00,,,0.00,Wunderground v.1.15,2013-09-04 09:23:00,
2013-09-04 05:28:00,60.1,57.2,29.84,ESE,117,0.0,2.0,90,0.00,,,0.00,Wunderground v.1.15,2013-09-04 09:28:00,
2013-09-04 05:33:00,59.9,57.3,29.84,ESE,116,2.0,4.0,91,0.00,,,0.00,Wunderground v.1.15,2013-09-04 09:33:00,
2013-09-04 05:38:00,59.9,57.3,29.84,ESE,117,4.0,5.0,91,0.00,,,0.00,Wunderground v.1.15,2013-09-04 09:38:00,
2013-09-04 05:43:00,59.9,57.6,29.84,ESE,118,2.0,4.0,92,0.00,,,0.00,Wunderground v.1.15,2013-09-04 09:43:00,
2013-09-04 05:48:00,59.8,57.5,29.84,ESE,118,0.0,5.0,92,0.00,,,0.00,Wunderground v.1.15,2013-09-04 09:48:00,
2013-09-04 05:53:00,59.6,57.6,29.84,SE,127,5.0,6.0,93,0.00,,,0.00,Wunderground v.1.15,2013-09-04 09:53:00,
2013-09-04 05:58:00,59.5,57.5,29.84,SE,130,0.0,6.0,93,0.00,,,0.00,Wunderground v.1.15,2013-09-04 09:58:00,
2013-09-04 06:03:00,59.3,57.3,29.84,SE,132,3.0,5.0,93,0.00,,,0.00,Wunderground v.1.15,2013-09-04 10:03:00,
2013-09-04 06:08:00,59.3,57.6,29.84,SE,134,0.0,6.0,94,0.00,,,0.00,Wunderground v.1.15,2013-09-04 10:08:00,
2013-09-04 06:13:00,59.3,57.6,29.85,SE,134,0.0,4.0,94,0.00,,,0.00,Wunderground v.1.15,2013-09-04 10:13:00,
2013-09-04 06:18:00,59.3,57.6,29.85,SE,130,0.0,6.0,94,0.00,,,0.00,Wunderground v.1.15,2013-09-04 10:18:00,
2013-09-04 06:23:00,59.2,57.5,29.85,SE,130,0.0,4.0,94,0.00,,,0.00,Wunderground v.1.15,2013-09-04 10:23:00,
2013-09-04 06:28:00,59.2,57.5,29.85,SE,130,1.0,4.0,94,0.00,,,0.00,Wunderground v.1.15,2013-09-04 10:28:00,
2013-09-04 06:33:00,59.0,57.3,29.85,SE,130,0.0,6.0,94,0.00,,,0.00,Wunderground v.1.15,2013-09-04 10:33:00,
2013-09-04 06:38:00,59.0,57.3,29.85,SE,129,0.0,6.0,94,0.00,,,0.00,Wunderground v.1.15,2013-09-04 10:38:00,
2013-09-04 06:44:00,58.9,57.2,29.85,SE,129,0.0,2.0,94,0.00,,,0.00,Wunderground v.1.15,2013-09-04 10:44:00,
2013-09-04 06:49:00,58.7,57.0,29.85,SE,129,0.0,4.0,94,0.00,,,0.00,Wunderground v.1.15,2013-09-04 10:49:00,
2013-09-04 06:54:00,58.6,56.9,29.85,SE,129,0.0,1.0,94,0.00,,,0.00,Wunderground v.1.15,2013-09-04 10:54:00,
2013-09-04 06:59:00,58.7,57.0,29.85,SE,130,1.0,3.0,94,0.00,,,0.00,Wunderground v.1.15,2013-09-04 10:59:00,
2013-09-04 07:04:00,58.9,57.2,29.85,SE,131,4.0,7.0,94,0.00,,,0.00,Wunderground v.1.15,2013-09-04 11:04:00,
2013-09-04 07:09:00,59.0,57.3,29.85,SE,132,0.0,7.0,94,0.00,,,0.00,Wunderground v.1.15,2013-09-04 11:09:00,
2013-09-04 07:14:00,59.2,57.5,29.85,SE,132,0.0,4.0,94,0.00,,,0.00,Wunderground v.1.15,2013-09-04 11:14:00,
2013-09-04 07:19:00,59.2,57.5,29.85,SE,134,0.0,5.0,94,0.00,,,0.00,Wunderground v.1.15,2013-09-04 11:19:00,
2013-09-04 07:24:00,59.3,57.6,29.85,SE,134,0.0,5.0,94,0.00,,,0.00,Wunderground v.1.15,2013-09-04 11:24:00,
2013-09-04 07:29:00,59.5,57.8,29.85,SE,134,0.0,5.0,94,0.00,,,0.00,Wunderground v.1.15,2013-09-04 11:29:00,
2013-09-04 07:34:00,59.9,58.2,29.85,SE,134,0.0,1.0,94,0.00,,,0.00,Wunderground v.1.15,2013-09-04 11:34:00,
2013-09-04 07:39:00,60.2,58.2,29.85,SE,135,1.0,5.0,93,0.00,,,0.00,Wunderground v.1.15,2013-09-04 11:39:00,
2013-09-04 07:44:00,60.5,58.5,29.85,SE,134,0.0,0.0,93,0.00,,,0.00,Wunderground v.1.15,2013-09-04 11:44:00,
2013-09-04 07:49:00,61.0,58.7,29.85,SE,134,0.0,1.0,92,0.00,,,0.00,Wunderground v.1.15,2013-09-04 11:49:00,
2013-09-04 07:54:00,61.3,58.7,29.85,SE,138,0.0,4.0,91,0.00,,,0.00,Wunderground v.1.15,2013-09-04 11:54:00,
2013-09-04 07:59:00,61.8,58.8,29.86,SE,126,0.0,6.0,90,0.00,,,0.00,Wunderground v.1.15,2013-09-04 11:59:00,
2013-09-04 08:04:00,62.4,59.1,29.86,SE,127,0.0,1.0,89,0.00,,,0.00,Wunderground v.1.15,2013-09-04 12:04:00,
2013-09-04 08:09:00,62.7,58.5,29.86,SE,129,0.0,4.0,86,0.00,,,0.00,Wunderground v.1.15,2013-09-04 12:09:00,
2013-09-04 08:14:00,63.2,57.6,29.86,SE,140,0.0,3.0,82,0.00,,,0.00,Wunderground v.1.15,2013-09-04 12:14:00,
2013-09-04 08:19:00,63.5,57.6,29.86,SSE,167,0.0,6.0,81,0.00,,,0.00,Wunderground v.1.15,2013-09-04 12:19:00,
2013-09-04 08:24:00,63.9,57.3,29.86,SSE,167,0.0,3.0,79,0.00,,,0.00,Wunderground v.1.15,2013-09-04 12:24:00,
2013-09-04 08:29:00,64.2,57.5,29.85,SSE,164,5.0,7.0,79,0.00,,,0.00,Wunderground v.1.15,2013-09-04 12:29:00,
2013-09-04 08:34:00,64.2,56.8,29.85,SSE,157,3.0,8.0,77,0.00,,,0.00,Wunderground v.1.15,2013-09-04 12:34:00,
2013-09-04 08:39:00,64.3,56.9,29.85,South,171,3.0,10.0,77,0.00,,,0.00,Wunderground v.1.15,2013-09-04 12:39:00,
2013-09-04 08:45:00,64.8,57.4,29.85,SSE,163,4.0,6.0,77,0.00,,,0.00,Wunderground v.1.15,2013-09-04 12:45:00,
2013-09-04 08:50:00,65.0,56.9,29.85,SSE,164,0.0,9.0,75,0.00,,,0.00,Wunderground v.1.15,2013-09-04 12:50:00,
2013-09-04 12:35:00,73.2,58.9,29.86,South,177,0.0,0.0,61,0.00,,,0.00,Wunderground v.1.15,2013-09-04 16:35:00,
2013-09-04 12:40:00,73.5,59.7,29.86,South,177,0.0,0.0,62,0.00,,,0.00,Wunderground v.1.15,2013-09-04 16:40:00,
2013-09-04 12:45:00,73.9,58.7,29.86,South,177,0.0,0.0,59,0.00,,,0.00,Wunderground v.1.15,2013-09-04 16:45:00,
2013-09-04 12:50:00,74.6,57.9,29.86,South,177,0.0,4.0,56,0.00,,,0.00,Wunderground v.1.15,2013-09-04 16:50:00,
2013-09-04 12:55:00,74.9,58.1,29.86,South,175,2.0,2.0,56,0.00,,,0.00,Wunderground v.1.15,2013-09-04 16:55:00,
2013-09-04 13:00:00,75.3,57.5,29.86,NNE,12,0.0,1.0,54,0.00,,,0.00,Wunderground v.1.15,2013-09-04 17:00:00,
2013-09-04 13:05:00,76.0,56.0,29.86,NNE,13,1.0,6.0,50,0.00,,,0.00,Wunderground v.1.15,2013-09-04 17:05:00,
2013-09-04 13:10:00,77.6,56.4,29.86,ENE,66,0.0,6.0,48,0.00,,,0.00,Wunderground v.1.15,2013-09-04 17:10:00,
2013-09-04 13:15:00,78.5,56.6,29.86,ENE,65,0.0,6.0,47,0.00,,,0.00,Wunderground v.1.15,2013-09-04 17:15:00,
2013-09-04 13:20:00,78.3,55.2,29.86,ENE,61,0.0,1.0,45,0.00,,,0.00,Wunderground v.1.15,2013-09-04 17:20:00,
2013-09-04 13:25:00,78.3,57.0,29.86,ENE,59,0.0,5.0,48,0.00,,,0.00,Wunderground v.1.15,2013-09-04 17:25:00,
2013-09-04 13:30:00,78.5,57.2,29.86,North,5,1.0,5.0,48,0.00,,,0.00,Wunderground v.1.15,2013-09-04 17:30:00,
2013-09-04 13:35:00,78.3,57.0,29.86,North,5,0.0,5.0,48,0.00,,,0.00,Wunderground v.1.15,2013-09-04 17:35:00,
2013-09-04 13:40:00,78.3,56.4,29.86,North,5,0.0,0.0,47,0.00,,,0.00,Wunderground v.1.15,2013-09-04 17:40:00,
2013-09-04 13:45:00,78.6,57.3,29.86,NNE,19,0.0,1.0,48,0.00,,,0.00,Wunderground v.1.15,2013-09-04 17:45:00,
2013-09-04 13:50:00,77.0,56.9,29.86,NNW,337,6.0,6.0,50,0.00,,,0.00,Wunderground v.1.15,2013-09-04 17:50:00,
2013-09-04 13:55:00,76.0,55.5,29.86,NW,309,2.0,7.0,49,0.00,,,0.00,Wunderground v.1.15,2013-09-04 17:55:00,
2013-09-04 14:00:00,75.4,54.3,29.85,WNW,292,3.0,5.0,48,0.00,,,0.00,Wunderground v.1.15,2013-09-04 18:00:00,
2013-09-04 14:05:00,74.7,55.4,29.85,WNW,292,4.0,10.0,51,0.00,,,0.00,Wunderground v.1.15,2013-09-04 18:05:00,
2013-09-04 14:10:00,74.7,55.9,29.85,West,278,8.0,8.0,52,0.00,,,0.00,Wunderground v.1.15,2013-09-04 18:10:00,
2013-09-04 14:15:00,74.9,55.6,29.84,WNW,298,3.0,9.0,51,0.00,,,0.00,Wunderground v.1.15,2013-09-04 18:15:00,
2013-09-04 14:21:00,74.9,57.1,29.84,NW,319,5.0,5.0,54,0.00,,,0.00,Wunderground v.1.15,2013-09-04 18:21:00,
2013-09-04 14:26:00,75.1,56.3,29.84,NW,319,0.0,9.0,52,0.00,,,0.00,Wunderground v.1.15,2013-09-04 18:26:00,
2013-09-04 14:31:00,75.6,57.8,29.84,NW,315,0.0,5.0,54,0.00,,,0.00,Wunderground v.1.15,2013-09-04 18:31:00,
2013-09-04 14:36:00,76.5,58.1,29.84,NW,317,0.0,5.0,53,0.00,,,0.00,Wunderground v.1.15,2013-09-04 18:36:00,
2013-09-04 14:41:00,76.7,56.1,29.84,NW,321,3.0,6.0,49,0.00,,,0.00,Wunderground v.1.15,2013-09-04 18:41:00,
2013-09-04 14:46:00,76.3,57.9,29.84,NW,321,0.0,6.0,53,0.00,,,0.00,Wunderground v.1.15,2013-09-04 18:46:00,
2013-09-04 14:51:00,75.8,56.4,29.84,NW,308,2.0,6.0,51,0.00,,,0.00,Wunderground v.1.15,2013-09-04 18:51:00,
2013-09-04 14:56:00,75.4,58.1,29.84,NW,310,0.0,6.0,55,0.00,,,0.00,Wunderground v.1.15,2013-09-04 18:56:00,
2013-09-04 15:01:00,76.1,57.2,29.84,NW,312,3.0,3.0,52,0.00,,,0.00,Wunderground v.1.15,2013-09-04 19:01:00,
2013-09-04 15:06:00,76.5,58.6,29.84,NW,312,0.0,3.0,54,0.00,,,0.00,Wunderground v.1.15,2013-09-04 19:06:00,
2013-09-04 15:11:00,76.5,59.1,29.84,NW,312,0.0,0.0,55,0.00,,,0.00,Wunderground v.1.15,2013-09-04 19:11:00,
2013-09-04 15:16:00,76.1,58.8,29.83,NW,313,1.0,4.0,55,0.00,,,0.00,Wunderground v.1.15,2013-09-04 19:16:00,
2013-09-04 15:21:00,75.1,55.7,29.83,WNW,296,6.0,7.0,51,0.00,,,0.00,Wunderground v.1.15,2013-09-04 19:21:00,
2013-09-04 15:26:00,74.0,56.3,29.83,WNW,294,0.0,7.0,54,0.00,,,0.00,Wunderground v.1.15,2013-09-04 19:26:00,
2013-09-04 15:31:00,73.7,58.9,29.83,WNW,294,0.0,1.0,60,0.00,,,0.00,Wunderground v.1.15,2013-09-04 19:31:00,
2013-09-04 15:36:00,73.3,56.7,29.83,West,279,0.0,7.0,56,0.00,,,0.00,Wunderground v.1.15,2013-09-04 19:36:00,
2013-09-04 15:41:00,74.0,53.1,29.83,West,279,3.0,4.0,48,0.00,,,0.00,Wunderground v.1.15,2013-09-04 19:41:00,
2013-09-04 15:46:00,74.0,57.3,29.83,West,279,0.0,4.0,56,0.00,,,0.00,Wunderground v.1.15,2013-09-04 19:46:00,
2013-09-04 15:51:00,73.5,55.8,29.83,West,277,4.0,6.0,54,0.00,,,0.00,Wunderground v.1.15,2013-09-04 19:51:00,
2013-09-04 15:56:00,73.7,58.5,29.83,West,277,0.0,6.0,59,0.00,,,0.00,Wunderground v.1.15,2013-09-04 19:56:00,
2013-09-04 16:01:00,73.0,56.9,29.83,West,277,0.0,1.0,57,0.00,,,0.00,Wunderground v.1.15,2013-09-04 20:01:00,
2013-09-04 16:06:00,73.3,58.6,29.83,West,277,0.0,1.0,60,0.00,,,0.00,Wunderground v.1.15,2013-09-04 20:06:00,
2013-09-04 16:11:00,73.3,58.1,29.83,West,277,0.0,0.0,59,0.00,,,0.00,Wunderground v.1.15,2013-09-04 20:11:00,
2013-09-04 16:16:00,73.5,54.3,29.83,West,277,0.0,1.0,51,0.00,,,0.00,Wunderground v.1.15,2013-09-04 20:16:00,
2013-09-04 16:21:00,73.3,56.2,29.83,West,269,0.0,4.0,55,0.00,,,0.00,Wunderground v.1.15,2013-09-04 20:21:00,
2013-09-04 16:26:00,73.2,56.1,29.83,West,269,0.0,4.0,55,0.00,,,0.00,Wunderground v.1.15,2013-09-04 20:26:00,
2013-09-04 16:31:00,73.3,57.1,29.83,West,269,0.0,0.0,57,0.00,,,0.00,Wunderground v.1.15,2013-09-04 20:31:00,
2013-09-04 16:36:00,73.3,59.9,29.83,West,269,0.0,0.0,63,0.00,,,0.00,Wunderground v.1.15,2013-09-04 20:36:00,
2013-09-04 16:41:00,73.2,60.3,29.83,West,269,0.0,0.0,64,0.00,,,0.00,Wunderground v.1.15,2013-09-04 20:41:00,
2013-09-04 16:46:00,72.1,59.2,29.83,West,269,0.0,0.0,64,0.00,,,0.00,Wunderground v.1.15,2013-09-04 20:46:00,
2013-09-04 16:51:00,71.8,59.4,29.83,West,269,0.0,0.0,65,0.00,,,0.00,Wunderground v.1.15,2013-09-04 20:51:00,
2013-09-04 16:56:00,71.6,59.2,29.83,West,269,0.0,1.0,65,0.00,,,0.00,Wunderground v.1.15,2013-09-04 20:56:00,
2013-09-04 17:01:00,71.6,60.9,29.84,West,269,0.0,0.0,69,0.00,,,0.00,Wunderground v.1.15,2013-09-04 21:01:00,
2013-09-04 17:06:00,71.3,58.9,29.84,West,269,0.0,0.0,65,0.00,,,0.00,Wunderground v.1.15,2013-09-04 21:06:00,
2013-09-04 17:11:00,71.3,57.6,29.84,West,269,0.0,0.0,62,0.00,,,0.00,Wunderground v.1.15,2013-09-04 21:11:00,
2013-09-04 17:16:00,71.3,58.9,29.84,West,269,0.0,0.0,65,0.00,,,0.00,Wunderground v.1.15,2013-09-04 21:16:00,
2013-09-04 17:21:00,71.1,58.7,29.84,North,5,5.0,10.0,65,0.00,,,0.00,Wunderground v.1.15,2013-09-04 21:21:00,
2013-09-04 17:26:00,70.8,58.9,29.84,NNE,26,6.0,10.0,66,0.00,,,0.00,Wunderground v.1.15,2013-09-04 21:26:00,
2013-09-04 17:31:00,70.1,58.6,29.85,NNE,22,4.0,12.0,67,0.00,,,0.00,Wunderground v.1.15,2013-09-04 21:31:00,
2013-09-04 17:36:00,69.6,58.6,29.85,NNE,31,5.0,12.0,68,0.00,,,0.00,Wunderground v.1.15,2013-09-04 21:36:00,
2013-09-04 17:41:00,69.1,58.9,29.85,NNE,30,2.0,7.0,70,0.00,,,0.00,Wunderground v.1.15,2013-09-04 21:41:00,
2013-09-04 17:46:00,68.4,58.6,29.86,ENE,65,13.0,19.0,71,0.00,,,0.00,Wunderground v.1.15,2013-09-04 21:46:00,
2013-09-04 17:51:00,68.1,58.7,29.86,North,360,7.0,11.0,72,0.00,,,0.00,Wunderground v.1.15,2013-09-04 21:51:00,
2013-09-04 17:56:00,67.9,58.9,29.86,NNE,19,0.0,12.0,73,0.00,,,0.00,Wunderground v.1.15,2013-09-04 21:56:00,
2013-09-04 18:01:00,67.8,59.2,29.87,North,355,3.0,6.0,74,0.00,,,0.00,Wunderground v.1.15,2013-09-04 22:01:00,
2013-09-04 18:06:00,67.8,59.2,29.87,North,5,7.0,10.0,74,0.00,,,0.00,Wunderground v.1.15,2013-09-04 22:06:00,
2013-09-04 18:11:00,67.8,58.8,29.87,NE,44,2.0,7.0,73,0.00,,,0.00,Wunderground v.1.15,2013-09-04 22:11:00,
2013-09-04 18:17:00,67.9,58.9,29.86,NE,47,0.0,10.0,73,0.00,,,0.00,Wunderground v.1.15,2013-09-04 22:17:00,
2013-09-04 18:22:00,67.8,59.2,29.86,ENE,65,0.0,4.0,74,0.00,,,0.00,Wunderground v.1.15,2013-09-04 22:22:00,
2013-09-04 18:27:00,67.8,58.8,29.86,NE,40,3.0,13.0,73,0.00,,,0.00,Wunderground v.1.15,2013-09-04 22:27:00,
2013-09-04 18:32:00,67.6,59.0,29.86,NE,44,1.0,3.0,74,0.00,,,0.00,Wunderground v.1.15,2013-09-04 22:32:00,
2013-09-04 18:37:00,67.6,59.0,29.86,ENE,59,6.0,7.0,74,0.00,,,0.00,Wunderground v.1.15,2013-09-04 22:37:00,
2013-09-04 18:42:00,67.4,59.2,29.86,ENE,75,4.0,5.0,75,0.00,,,0.00,Wunderground v.1.15,2013-09-04 22:42:00,
2013-09-04 18:47:00,67.1,59.3,29.86,ENE,73,6.0,7.0,76,0.00,,,0.00,Wunderground v.1.15,2013-09-04 22:47:00,
2013-09-04 18:52:00,66.9,59.5,29.86,ENE,68,0.0,5.0,77,0.00,,,0.00,Wunderground v.1.15,2013-09-04 22:52:00,
2013-09-04 18:57:00,66.8,59.4,29.86,ENE,62,0.0,6.0,77,0.00,,,0.00,Wunderground v.1.15,2013-09-04 22:57:00,
2013-09-04 19:02:00,66.8,59.4,29.87,ENE,61,1.0,6.0,77,0.00,,,0.00,Wunderground v.1.15,2013-09-04 23:02:00,
2013-09-04 19:07:00,66.8,59.4,29.87,NE,49,1.0,9.0,77,0.00,,,0.00,Wunderground v.1.15,2013-09-04 23:07:00,
2013-09-04 19:12:00,66.6,59.2,29.87,NE,47,1.0,5.0,77,0.00,,,0.00,Wunderground v.1.15,2013-09-04 23:12:00,
2013-09-04 19:17:00,66.4,59.3,29.86,NNE,29,2.0,7.0,78,0.00,,,0.00,Wunderground v.1.15,2013-09-04 23:17:00,
2013-09-04 19:22:00,66.3,59.6,29.86,NW,325,5.0,10.0,79,0.00,,,0.00,Wunderground v.1.15,2013-09-04 23:22:00,
2013-09-04 19:27:00,66.1,59.4,29.86,NNW,329,4.0,11.0,79,0.00,,,0.00,Wunderground v.1.15,2013-09-04 23:27:00,
2013-09-04 19:32:00,66.0,59.3,29.87,NNW,333,2.0,3.0,79,0.00,,,0.00,Wunderground v.1.15,2013-09-04 23:32:00,
2013-09-04 19:37:00,65.8,59.5,29.87,NNW,334,0.0,6.0,80,0.00,,,0.00,Wunderground v.1.15,2013-09-04 23:37:00,
2013-09-04 19:42:00,65.6,58.9,29.87,NNW,336,1.0,10.0,79,0.00,,,0.00,Wunderground v.1.15,2013-09-04 23:42:00,
2013-09-04 19:47:00,65.6,59.6,29.88,NNW,348,1.0,10.0,81,0.00,,,0.00,Wunderground v.1.15,2013-09-04 23:47:00,
2013-09-04 19:52:00,65.2,59.9,29.88,North,360,1.0,5.0,83,0.00,,,0.00,Wunderground v.1.15,2013-09-04 23:52:00,
2013-09-04 19:57:00,64.7,59.8,29.88,North,5,3.0,7.0,84,0.00,,,0.01,Wunderground v.1.15,2013-09-04 23:57:00,
2013-09-04 20:02:00,64.3,59.7,29.88,North,5,0.0,2.0,85,0.00,,,0.01,Wunderground v.1.15,2013-09-05 00:02:00,
2013-09-04 20:07:00,64.2,59.9,29.88,NNE,23,1.0,5.0,86,0.00,,,0.01,Wunderground v.1.15,2013-09-05 00:07:00,
2013-09-04 20:12:00,63.9,60.0,29.88,NNE,27,1.0,1.0,87,0.00,,,0.01,Wunderground v.1.15,2013-09-05 00:12:00,
2013-09-04 20:17:00,63.7,60.1,29.88,NNE,30,0.0,5.0,88,0.00,,,0.01,Wunderground v.1.15,2013-09-05 00:17:00,
2013-09-04 20:22:00,63.5,60.2,29.88,NE,53,0.0,4.0,89,0.00,,,0.01,Wunderground v.1.15,2013-09-05 00:22:00,
2013-09-04 20:27:00,63.4,60.4,29.88,NE,55,2.0,4.0,90,0.00,,,0.01,Wunderground v.1.15,2013-09-05 00:27:00,
2013-09-04 20:32:00,63.2,60.2,29.89,ENE,61,0.0,5.0,90,0.00,,,0.01,Wunderground v.1.15,2013-09-05 00:32:00,
2013-09-04 20:37:00,63.2,60.2,29.89,ENE,61,0.0,5.0,90,0.00,,,0.01,Wunderground v.1.15,2013-09-05 00:37:00,
2013-09-04 20:43:00,63.2,60.2,29.89,NE,51,0.0,7.0,90,0.00,,,0.01,Wunderground v.1.15,2013-09-05 00:43:00,
2013-09-04 20:48:00,63.4,60.4,29.89,NE,52,1.0,7.0,90,0.00,,,0.01,Wunderground v.1.15,2013-09-05 00:48:00,
2013-09-04 20:53:00,63.2,60.2,29.89,ENE,71,0.0,7.0,90,0.00,,,0.01,Wunderground v.1.15,2013-09-05 00:53:00,
2013-09-04 20:58:00,63.1,60.1,29.89,ENE,63,0.0,7.0,90,0.00,,,0.02,Wunderground v.1.15,2013-09-05 00:58:00,
2013-09-04 21:04:00,63.1,60.4,29.89,ENE,61,0.0,3.0,91,0.00,,,0.02,Wunderground v.1.15,2013-09-05 01:04:00,
2013-09-04 21:09:00,63.1,60.7,29.89,NE,51,3.0,6.0,92,0.35,,,0.04,Wunderground v.1.15,2013-09-05 01:09:00,
2013-09-04 21:14:00,62.7,60.3,29.90,NE,51,2.0,10.0,92,0.20,,,0.06,Wunderground v.1.15,2013-09-05 01:14:00,
2013-09-04 21:19:00,62.6,60.2,29.90,NE,51,0.0,10.0,92,0.15,,,0.07,Wunderground v.1.15,2013-09-05 01:19:00,
2013-09-04 21:24:00,62.6,60.5,29.90,NE,46,5.0,7.0,93,0.07,,,0.07,Wunderground v.1.15,2013-09-05 01:24:00,
2013-09-04 21:29:00,62.4,60.3,29.89,NE,44,0.0,9.0,93,0.07,,,0.08,Wunderground v.1.15,2013-09-05 01:29:00,
2013-09-04 21:34:00,62.4,60.3,29.89,NE,37,9.0,9.0,93,0.06,,,0.08,Wunderground v.1.15,2013-09-05 01:34:00,
2013-09-04 21:39:00,62.4,60.7,29.89,NNE,32,2.0,9.0,94,0.04,,,0.08,Wunderground v.1.15,2013-09-05 01:39:00,
2013-09-04 21:44:00,62.4,60.7,29.90,NNE,28,1.0,9.0,94,0.00,,,0.08,Wunderground v.1.15,2013-09-05 01:44:00,
2013-09-04 21:49:00,62.4,60.7,29.90,NNE,28,2.0,9.0,94,0.00,,,0.08,Wunderground v.1.15,2013-09-05 01:49:00,
2013-09-04 21:54:00,62.3,60.6,29.90,NNE,28,0.0,1.0,94,0.00,,,0.08,Wunderground v.1.15,2013-09-05 01:54:00,
2013-09-04 21:59:00,62.3,60.6,29.90,NNE,28,2.0,3.0,94,0.26,,,0.10,Wunderground v.1.15,2013-09-05 01:59:00,
2013-09-04 22:04:00,62.3,60.6,29.90,NNE,28,0.0,2.0,94,0.08,,,0.10,Wunderground v.1.15,2013-09-05 02:04:00,
2013-09-04 22:09:00,62.1,60.7,29.90,NNE,28,0.0,4.0,95,0.05,,,0.10,Wunderground v.1.15,2013-09-05 02:09:00,
2013-09-04 22:14:00,62.0,60.6,29.90,NNE,28,0.0,5.0,95,0.00,,,0.10,Wunderground v.1.15,2013-09-05 02:14:00,
2013-09-04 22:19:00,62.0,60.6,29.90,NNE,32,5.0,6.0,95,0.00,,,0.10,Wunderground v.1.15,2013-09-05 02:19:00,
2013-09-04 22:24:00,62.0,60.6,29.90,NNE,32,3.0,6.0,95,0.00,,,0.10,Wunderground v.1.15,2013-09-05 02:24:00,
2013-09-04 22:29:00,62.0,60.6,29.89,NNE,32,0.0,6.0,95,0.00,,,0.10,Wunderground v.1.15,2013-09-05 02:29:00,
2013-09-04 22:34:00,62.0,60.6,29.89,NNE,32,0.0,3.0,95,0.00,,,0.10,Wunderground v.1.15,2013-09-05 02:34:00,
2013-09-04 22:39:00,62.0,60.6,29.89,NNE,32,0.0,3.0,95,0.00,,,0.10,Wunderground v.1.15,2013-09-05 02:39:00,
2013-09-04 22:44:00,62.0,60.6,29.89,NNE,32,0.0,1.0,95,0.00,,,0.10,Wunderground v.1.15,2013-09-05 02:44:00,
2013-09-04 22:49:00,61.8,60.4,29.89,NNE,32,3.0,4.0,95,0.00,,,0.10,Wunderground v.1.15,2013-09-05 02:49:00,
2013-09-04 22:54:00,61.8,60.4,29.89,NNE,32,0.0,1.0,95,0.00,,,0.10,Wunderground v.1.15,2013-09-05 02:54:00,
2013-09-04 22:59:00,61.8,60.4,29.89,NNE,32,2.0,4.0,95,0.00,,,0.10,Wunderground v.1.15,2013-09-05 02:59:00,
2013-09-04 23:05:00,61.8,60.4,29.89,NNE,32,0.0,3.0,95,0.00,,,0.10,Wunderground v.1.15,2013-09-05 03:05:00,
2013-09-04 23:10:00,61.8,60.4,29.89,NNE,32,0.0,0.0,95,0.00,,,0.10,Wunderground v.1.15,2013-09-05 03:10:00,
2013-09-04 23:15:00,61.8,60.4,29.89,NNE,32,0.0,1.0,95,0.00,,,0.10,Wunderground v.1.15,2013-09-05 03:15:00,
2013-09-04 23:20:00,61.8,60.4,29.89,NNE,32,0.0,0.0,95,0.00,,,0.10,Wunderground v.1.15,2013-09-05 03:20:00,
2013-09-04 23:25:00,61.8,60.4,29.89,NNE,32,0.0,1.0,95,0.00,,,0.10,Wunderground v.1.15,2013-09-05 03:25:00,
2013-09-04 23:30:00,61.8,60.4,29.89,NNE,32,0.0,0.0,95,0.00,,,0.11,Wunderground v.1.15,2013-09-05 03:30:00,
2013-09-04 23:35:00,61.8,60.4,29.89,NNE,32,0.0,0.0,95,0.00,,,0.11,Wunderground v.1.15,2013-09-05 03:35:00,
2013-09-04 23:40:00,61.8,60.4,29.89,NNE,32,0.0,0.0,95,0.05,,,0.12,Wunderground v.1.15,2013-09-05 03:40:00,
2013-09-04 23:45:00,61.8,60.4,29.88,NNE,32,0.0,0.0,95,0.11,,,0.12,Wunderground v.1.15,2013-09-05 03:45:00,
2013-09-04 23:50:00,61.8,60.4,29.88,NNE,32,0.0,0.0,95,0.08,,,0.12,Wunderground v.1.15,2013-09-05 03:50:00,
2013-09-04 23:55:00,61.6,60.2,29.88,NNE,32,0.0,4.0,95,0.05,,,0.12,Wunderground v.1.15,2013-09-05 03:55:00,